Weather History for New York, NY

Change the Weather History Date:

Sunday, February 10, 2013

  Actual Average Record
Temperature  
Mean Temperature 28 °F 34 °F  
Max Temperature 36 °F 41 °F 60 °F (2001)
Min Temperature 20 °F 28 °F 4 °F (1979)
Degree Days  
Heating Degree Days 37 30  
Month to date heating degree days 356 311  
Since 1 July heating degree days 2705 2910  
Cooling Degree Days 0 0  
Month to date cooling degree days 0 0  
Year to date cooling degree days 0 0  
Moisture  
Dew Point 11 °F    
Average Humidity 52    
Maximum Humidity 69    
Minimum Humidity 35    
Precipitation  
Precipitation 0.00 in 0.09 in 1.67 in (1970)
Month to date precipitation 0.95 0.95  
Year to date precipitation 3.59 4.12  
Snow  
Snow 0.00 in 0.30 in 10.40 in (2010)
Month to date snowfall 13.1 3.2  
Since 1 July snowfall 16.1 16.1  
Snow Depth 8.00 in    
Sea Level Pressure  
Sea Level Pressure 30.40 in    
Wind  
Wind Speed 7 mph (WNW)    
Max Wind Speed 20 mph    
Max Gust Speed 25 mph    
Visibility 10 miles    
Events      
T = Trace of Precipitation, MM = Missing Value Source: NWS Daily Summary

Daily Weather History Graph

Daily Weather History Graph

Search for Another Location

Airport:

Trip Planner

Search our weather history database for the weather conditions in past years. The results will help you decide how hot, cold, wet, or windy it might be!

Date:

Astronomy

Feb. 10, 2013 Rise Set
Actual Time 6:55 AM EST 5:24 PM EST
Civil Twilight 6:27 AM EST 5:52 PM EST
Nautical Twilight 5:54 AM EST 6:25 PM EST
Astronomical Twilight 5:23 AM EST 6:57 PM EST
Moon 6:43 AM EST (2/10) 6:12 PM EST (2/10)
Length of Visible Light 11h 25m
Length of Day
10h 28m
New Moon, 0% of the Moon is Illuminated
Feb 10
New Moon
Feb 17
First Quarter
Feb 25
Full
Mar 4
Last Quarter
Mar 11
New

Hourly Weather History & Observations

Time (EST) Temp. Windchill Dew Point Humidity Pressure Visibility Wind Dir Wind Speed Gust Speed Precip Events Conditions
12:51 AM 23.0 °F 10.1 °F 7.0 °F 50% 30.35 in 10.0 mi NW 15.0 mph - N/A   Clear
1:51 AM 21.9 °F 9.2 °F 6.1 °F 51% 30.36 in 10.0 mi NW 13.8 mph 19.6 mph N/A   Clear
2:51 AM 21.0 °F 8.6 °F 7.0 °F 55% 30.37 in 10.0 mi NNW 12.7 mph 19.6 mph N/A   Clear
3:51 AM 21.0 °F 11.4 °F 7.0 °F 55% 30.37 in 10.0 mi NNW 8.1 mph - N/A   Clear
4:51 AM 19.9 °F 11.1 °F 6.1 °F 55% 30.38 in 10.0 mi NNW 6.9 mph - N/A   Clear
5:51 AM 19.9 °F 8.6 °F 7.0 °F 57% 30.40 in 10.0 mi WNW 10.4 mph - N/A   Clear
6:51 AM 19.9 °F 11.1 °F 7.0 °F 57% 30.43 in 10.0 mi NNW 6.9 mph - N/A   Partly Cloudy
7:51 AM 19.9 °F 13.4 °F 7.0 °F 57% 30.44 in 10.0 mi NNE 4.6 mph - N/A   Scattered Clouds
8:51 AM 23.0 °F 13.9 °F 6.1 °F 48% 30.47 in 10.0 mi NNW 8.1 mph - N/A   Scattered Clouds
9:51 AM 24.1 °F 16.0 °F 8.1 °F 51% 30.48 in 10.0 mi WNW 6.9 mph - N/A   Scattered Clouds
10:51 AM 26.1 °F 18.4 °F 8.1 °F 47% 30.49 in 10.0 mi NW 6.9 mph - N/A   Scattered Clouds
11:51 AM 28.9 °F 25.2 °F 8.1 °F 41% 30.47 in 10.0 mi NNW 3.5 mph - N/A   Scattered Clouds
12:51 PM 30.9 °F - 9.0 °F 40% 30.43 in 10.0 mi Calm Calm - N/A   Scattered Clouds
1:51 PM 33.1 °F - 9.0 °F 37% 30.41 in 10.0 mi Calm Calm - N/A   Scattered Clouds
2:51 PM 36.0 °F - 10.9 °F 36% 30.40 in 10.0 mi Calm Calm - N/A   Scattered Clouds
3:51 PM 36.0 °F - 12.9 °F 39% 30.38 in 10.0 mi Calm Calm - N/A   Scattered Clouds
4:51 PM 35.1 °F 30.1 °F 14.0 °F 42% 30.38 in 10.0 mi South 5.8 mph - N/A   Mostly Cloudy
5:51 PM 34.0 °F 27.2 °F 15.1 °F 46% 30.39 in 10.0 mi South 8.1 mph - N/A   Mostly Cloudy
6:51 PM 32.0 °F 26.4 °F 9.0 °F 38% 30.39 in 10.0 mi South 5.8 mph - N/A   Mostly Cloudy
7:51 PM 32.0 °F 25.6 °F 14.0 °F 48% 30.39 in 10.0 mi SSW 6.9 mph - N/A   Mostly Cloudy
8:51 PM 33.1 °F 27.7 °F 21.0 °F 61% 30.38 in 10.0 mi South 5.8 mph - N/A   Mostly Cloudy
9:51 PM 33.1 °F 26.1 °F 24.1 °F 70% 30.36 in 10.0 mi South 8.1 mph - N/A   Overcast
10:51 PM 33.1 °F 26.1 °F 24.1 °F 70% 30.34 in 10.0 mi South 8.1 mph - N/A   Overcast
11:51 PM 34.0 °F 27.2 °F 23.0 °F 64% 30.34 in 10.0 mi South 8.1 mph - N/A   Overcast